Rome, NY

9:22 AM EST on November 20, 2019 (GMT -0500)
Griffiss

Weather History for KRME - September, 2019

Change the Weather History Date:

Saturday, September 14, 2019

  Actual Average Record
Temperature  
Mean Temperature 64 °F -  
Max Temperature 73 °F 73 °F 89 °F (1982)
Min Temperature 55 °F 50 °F 36 °F (1985)
Degree Days  
Heating Degree Days 1    
Growing Degree Days 14 (Base 50)    
Moisture  
Dew Point 58 °F    
Average Humidity 80    
Maximum Humidity 100    
Minimum Humidity 67    
Precipitation  
Precipitation 0.06 in - - ()
Sea Level Pressure  
Sea Level Pressure 30.18 in    
Wind  
Wind Speed 8 mph (SSE)    
Max Wind Speed 16 mph    
Max Gust Speed 22 mph    
Visibility 10 miles    
Events Rain , Thunderstorm    
Averages and records for this station are not official NWS values.
T = Trace of Precipitation, MM = Missing Value Source: NWS Daily Summary

Daily Weather History Graph

Daily Weather History Graph

Search for Another Location

Airport or City:

Astronomy

Sep. 14, 2019 Rise Set
Actual Time 6:39 AM EDT 7:13 PM EDT
Civil Twilight 6:11 AM EDT 7:42 PM EDT
Nautical Twilight 5:37 AM EDT 8:16 PM EDT
Astronomical Twilight 5:02 AM EDT 8:51 PM EDT
Moon 7:54 PM EDT (9/14) 6:49 AM EDT (9/14)
Length of Visible Light 13h 31m
Length of Day
12h 34m
Full, 100% of the Moon is Illuminated
Sep 14
Full
Sep 21
Last Quarter
Sep 28
New
Oct 5
First Quarter
Oct 13
Full

Hourly Weather History & Observations

Time (EDT) Temp. Dew Point Humidity Pressure Visibility Wind Dir Wind Speed Gust Speed Precip Events Conditions
12:53 AM 63.0 °F 52.0 °F 67% 30.27 in 10.0 mi SE 9.2 mph - N/A   Overcast
1:53 AM 63.0 °F 52.0 °F 67% 30.25 in 10.0 mi SE 8.1 mph - N/A   Overcast
2:53 AM 62.1 °F 52.0 °F 70% 30.24 in 10.0 mi SE 8.1 mph 18.4 mph N/A   Overcast
3:53 AM 62.1 °F 53.1 °F 72% 30.23 in 10.0 mi SE 6.9 mph - N/A   Overcast
4:14 AM 62.1 °F 53.1 °F 72% 30.26 in 10.0 mi South 4.6 mph - N/A Thunderstorm Overcast
4:31 AM 62.1 °F 54.0 °F 75% 30.24 in 9.0 mi SE 6.9 mph - 0.01 in Rain Light Rain
4:53 AM 60.1 °F 55.9 °F 86% 30.23 in 10.0 mi ESE 8.1 mph - 0.01 in   Overcast
5:22 AM 61.0 °F 55.0 °F 81% 30.23 in 10.0 mi SE 9.2 mph - 0.00 in Rain Light Rain
5:53 AM 61.0 °F 55.0 °F 81% 30.22 in 10.0 mi SSE 10.4 mph - 0.00 in Rain Light Rain
6:53 AM 61.0 °F 55.0 °F 81% 30.20 in 10.0 mi SE 9.2 mph - 0.00 in   Overcast
7:53 AM 60.1 °F 57.0 °F 90% 30.20 in 5.0 mi SE 6.9 mph - 0.04 in Rain Light Rain
8:53 AM 60.1 °F 57.9 °F 93% 30.20 in 10.0 mi ESE 8.1 mph - 0.01 in   Overcast
9:53 AM 61.0 °F 59.0 °F 93% 30.19 in 10.0 mi East 6.9 mph - N/A   Overcast
10:53 AM 63.0 °F 59.0 °F 87% 30.19 in 10.0 mi ESE 5.8 mph - N/A   Overcast
11:53 AM 66.0 °F 60.1 °F 81% 30.17 in 10.0 mi South 9.2 mph - N/A   Overcast
12:53 PM 68.0 °F 61.0 °F 78% 30.15 in 10.0 mi South 10.4 mph - N/A   Overcast
1:53 PM 71.1 °F 62.1 °F 73% 30.13 in 10.0 mi South 12.7 mph - N/A   Overcast
2:50 PM 73.4 °F 62.6 °F 69% 30.11 in 10.0 mi SSW 13.8 mph 21.9 mph N/A   Mostly Cloudy
2:53 PM 73.0 °F 63.0 °F 71% 30.10 in 10.0 mi SSW 13.8 mph 21.9 mph N/A   Scattered Clouds
3:53 PM 72.0 °F 63.0 °F 73% 30.09 in 10.0 mi South 16.1 mph 21.9 mph N/A   Mostly Cloudy
4:53 PM 73.0 °F 63.0 °F 71% 30.08 in 10.0 mi South 13.8 mph - N/A   Partly Cloudy
5:46 PM 71.1 °F 63.0 °F 75% 30.10 in 10.0 mi SW 5.8 mph - N/A   Overcast
5:53 PM 71.1 °F 63.0 °F 75% 30.10 in 10.0 mi WNW 6.9 mph - N/A   Overcast
6:53 PM 66.0 °F 59.0 °F 78% 30.12 in 10.0 mi NW 5.8 mph - N/A   Overcast
7:41 PM 66.0 °F 57.9 °F 75% 30.14 in 10.0 mi West 5.8 mph - N/A   Mostly Cloudy
7:53 PM 64.9 °F 57.9 °F 78% 30.14 in 10.0 mi West 4.6 mph - N/A   Mostly Cloudy
8:53 PM 60.1 °F 57.0 °F 90% 30.17 in 10.0 mi Calm Calm - N/A   Clear
9:53 PM 57.9 °F 57.0 °F 97% 30.19 in 10.0 mi Calm Calm - N/A   Partly Cloudy
10:53 PM 55.9 °F 55.0 °F 97% 30.19 in 10.0 mi NE 3.5 mph - N/A   Clear
11:53 PM 55.0 °F 55.0 °F 100% 30.19 in 10.0 mi Calm Calm - N/A   Clear